Regional Weather Roundup
Issued by NWS Nashville, TN

Home | Current Version | Previous Version | Text Only | Print | Product List | Glossary On
Versions: 1 2 3 4 5 6 7 8 9 10 11 12 13 14 15 16 17 18 19 20 21 22 23 24 25 26 27 28 29 30 31 32 33 34 35 36 37 38 39 40 41 42 43 44 45 46 47 48 49 50
000
ASUS44 KOHX 011715
RWROHX
MIDDLE TENNESSEE HOURLY WEATHER ROUNDUP
NATIONAL WEATHER SERVICE NASHVILLE TN
1200 PM CDT WED OCT 01 2014

NOTE: "FAIR" INDICATES FEW OR NO CLOUDS BELOW 12,000 FEET WITH
NO SIGNIFICANT WEATHER AND/OR OBSTRUCTIONS TO VISIBILITY.

* THESE REPORTS ARE NOT UNDER NWS QUALITY CONTROL AND MAY NOT
  REPORT WEATHER SUCH AS PRECIPITATION AND FOG.


TNZ005>011-023>034-057-059-062>066-078-080-011800
...NORTHERN MIDDLE TENNESSEE...

CITY           SKY/WX    TMP DP  RH WIND       PRES   REMARKS
CLARKSVILLE    SUNNY     83  59  44 VRB5      29.97F
CROSSVILLE     MOSUNNY   77  50  38 W7        30.06F
GALLATIN         N/A     82  61  49 CALM      30.01S
LEBANON        PTSUNNY   83  55  37 VRB5      29.98F
LIVINGSTON     MOSUNNY   79  52  38 VRB3      30.03F
NASHVILLE      MOSUNNY   85  55  35 S3        29.99F
PORTLAND       MOSUNNY   82  55  39 S6        29.99S
SMYRNA         MOSUNNY   84  55  36 CALM      30.00F
SPARTA         SUNNY     82  59  44 VRB3      30.02S
$$
TNZ056-058-060-061-075>077-079-093>097-011800
...SOUTHERN MIDDLE TENNESSEE...

CITY           SKY/WX    TMP DP  RH WIND       PRES   REMARKS
COLUMBIA       SUNNY     84  64  51 W3        29.98S
FAYETTEVILLE   SUNNY     81  61  50 S6        30.01F
LEWISBURG      PTSUNNY   81  62  52 SW3       30.00S
MCMINNVILLE    SUNNY     81  64  57 W5        30.01F
MURFREESBORO   SUNNY     85  55  35 S5        29.99F
SHELBYVILLE    SUNNY     86  63  45 W7        30.00F
TULLAHOMA      SUNNY     82  57  42 SW6       30.02F
WINCHESTER     SUNNY     79  61  53 VRB3      30.01F
$$


...KEY TO REMARKS...
VSB - VISIBILITY IN MILES
WCI - WIND CHILL INDEX
HX  - HEAT INDEX




USA.gov is the U.S. government's official web portal to all federal, state and local government web resources and services.